STARLINK-31 (44235 NORAD) Tracking and Keplerian Element Data

This shows tracking and keplerian element data for the satellite.

Feedback or suggestion? Click here.




ElementValue
Catalog44235
NameSTARLINK-31
Epoch Orbit4263
Epoch Day53.25001157
Epoch Year2020
RAAN17.7649
Inclination53.0031
Eccentricity0.0002279
Argument of Perigee61.8982
Mean Anonmoly42.5728
Mean Motion15.12114163
Decay Rate0.00021266
L11 44235U 19029A 20053.25001157 .00021266 00000-0 12339-2 0 9997
L22 44235 53.0031 17.7649 0002279 61.8982 42.5728 15.12114163 42638

Live tracking and technical data element details for STARLINK-31 (NORAD 44235). STARLINK-31 can be tracked NOW for your location showing map with azimuth and elevation plus other details from your city location.

Track the satellite on the map from your city or location and see movement details for azimuth, elevation, latitude, longitude, range, height, and movement on the map or in text.







IsCatalogInMostPopularTable: catalog: 44235, numindb: 497
Update: records affected: 1



GetName: 44235 STARLINK-31

Hit Count: updated at: Sun, 23 Feb 2020 07:52:11 GMT